TimeEST,TemperatureF,Dew PointF,Humidity,Sea Level PressureIn,VisibilityMPH,Wind Direction,Wind SpeedMPH,Gust SpeedMPH,PrecipitationIn,Events,Conditions,WindDirDegrees,DateUTC
12:25 AM,32.0,30.2,93,29.49,10.0,Calm,Calm,-,0.00,,Overcast,0,2012-12-11 05:25:00
12:53 AM,32.0,30.9,96,29.51,10.0,SE,3.5,-,0.00,,Overcast,140,2012-12-11 05:53:00
1:53 AM,33.1,30.9,92,29.54,10.0,Calm,Calm,-,N/A,,Overcast,0,2012-12-11 06:53:00
2:53 AM,33.1,32.0,96,29.55,10.0,Calm,Calm,-,0.00,,Overcast,0,2012-12-11 07:53:00
3:06 AM,33.8,32.0,93,29.53,10.0,South,4.6,-,N/A,,Overcast,180,2012-12-11 08:06:00
3:14 AM,35.6,32.0,87,29.53,10.0,Variable,4.6,-,N/A,,Overcast,0,2012-12-11 08:14:00
3:53 AM,34.0,32.0,92,29.56,10.0,Calm,Calm,-,N/A,,Partly Cloudy,0,2012-12-11 08:53:00
4:53 AM,35.1,30.9,85,29.62,10.0,Variable,4.6,-,N/A,,Scattered Clouds,0,2012-12-11 09:53:00
5:53 AM,35.1,30.0,82,29.65,10.0,WNW,6.9,-,N/A,,Overcast,300,2012-12-11 10:53:00
6:22 AM,35.6,30.2,81,29.63,10.0,West,4.6,-,N/A,,Overcast,270,2012-12-11 11:22:00
6:50 AM,35.6,30.2,81,29.65,10.0,Variable,5.8,-,N/A,,Overcast,0,2012-12-11 11:50:00
6:53 AM,35.1,30.0,82,29.69,10.0,West,8.1,-,N/A,,Overcast,270,2012-12-11 11:53:00
7:53 AM,35.1,28.0,76,29.71,10.0,NW,13.8,19.6,N/A,,Overcast,310,2012-12-11 12:53:00
8:53 AM,34.0,26.1,73,29.74,10.0,WNW,9.2,18.4,N/A,,Overcast,300,2012-12-11 13:53:00
9:53 AM,32.0,24.1,73,29.77,10.0,WNW,9.2,32.2,N/A,,Overcast,290,2012-12-11 14:53:00
10:36 AM,30.2,21.2,69,29.76,10.0,WNW,9.2,19.6,N/A,,Scattered Clouds,290,2012-12-11 15:36:00
10:53 AM,30.9,21.0,67,29.79,10.0,WNW,16.1,26.5,N/A,,Clear,300,2012-12-11 15:53:00
11:53 AM,32.0,21.0,64,29.81,10.0,NW,16.1,21.9,N/A,,Clear,310,2012-12-11 16:53:00
12:53 PM,30.9,19.0,61,29.84,10.0,WNW,12.7,20.7,N/A,,Clear,300,2012-12-11 17:53:00
2:53 PM,27.0,18.0,69,29.90,10.0,NW,12.7,19.6,N/A,,Clear,310,2012-12-11 19:53:00
3:53 PM,26.1,17.1,69,29.94,10.0,WNW,8.1,-,N/A,,Clear,300,2012-12-11 20:53:00
4:53 PM,24.1,16.0,71,29.97,10.0,WNW,5.8,-,N/A,,Clear,300,2012-12-11 21:53:00
5:53 PM,23.0,15.1,72,30.01,10.0,WNW,5.8,-,N/A,,Clear,300,2012-12-11 22:53:00
6:53 PM,21.9,14.0,72,30.02,10.0,WNW,11.5,19.6,N/A,,Clear,300,2012-12-11 23:53:00
7:53 PM,21.0,14.0,74,30.05,10.0,Calm,Calm,-,N/A,,Clear,0,2012-12-12 00:53:00
8:53 PM,19.9,12.9,74,30.07,10.0,WNW,8.1,-,N/A,,Clear,290,2012-12-12 01:53:00
9:53 PM,19.9,12.0,71,30.09,10.0,WNW,10.4,19.6,N/A,,Clear,290,2012-12-12 02:53:00
10:53 PM,19.9,12.0,71,30.12,10.0,WNW,8.1,-,N/A,,Clear,290,2012-12-12 03:53:00
11:53 PM,19.0,12.0,74,30.13,10.0,WNW,5.8,-,N/A,,Clear,290,2012-12-12 04:53:00